Date String (YYYY-MM-DD hh:mm:ss) UTC,Instrument flags,Ambient pressure (hPa),Sample flow (lpm),Bypass flow (lpm),Sample temperature (°C),Ambient temperature (°C),ASC tube jacket temperature (°C),LED temperature (°C),Box temperature (°C),Sample RH (%),Span deviation,Mass concentration (μg/m³),Mass concentration (μg/m³),Mass concentration (μg/m³)
DateTimeUTC,F1_M11,P_M11,Q1_M11,Q2_M11,T1_M11,T2_M11,T3_M11,T4_M11,T5_M11,U1_M11,ZSPAN_M11,X0_M11,X2_M11,X1_M11
2022-12-16 07:00:00,,0821.8,4.98,0.00,21.9,20.4,00.0,30.8,23.7,03.7,0000.0,0001.19,0000.84,0000.75
2022-12-16 07:01:00,,0821.8,4.98,0.00,21.9,20.5,00.0,30.8,23.7,03.7,0000.0,0001.14,0000.83,0000.74
2022-12-16 07:02:00,,0821.8,5.02,0.00,22.0,21.2,00.0,30.7,23.8,03.7,0000.0,0001.17,0000.84,0000.75
2022-12-16 07:03:00,,0821.8,4.96,0.00,22.1,22.1,00.0,30.8,24.0,03.6,0000.0,0001.23,0000.85,0000.76
2022-12-16 07:04:00,,0821.8,5.04,0.00,22.1,21.9,00.0,30.8,24.1,03.6,0000.0,0001.19,0000.84,0000.76
2022-12-16 07:05:00,,0821.8,4.96,0.00,22.1,21.6,00.0,30.8,24.0,03.6,0000.0,0001.22,0000.85,0000.77
2022-12-16 07:06:00,,0821.8,5.05,0.00,22.1,21.3,00.0,30.9,23.9,03.7,0000.0,0001.22,0000.85,0000.77
2022-12-16 07:07:00,,0821.8,4.97,0.00,22.1,21.0,00.0,30.9,23.9,03.6,0000.0,0001.18,0000.85,0000.78
2022-12-16 07:08:00,,0821.8,4.98,0.00,22.1,20.8,00.0,30.9,23.8,03.7,0000.0,0001.16,0000.87,0000.78
2022-12-16 07:09:00,,0821.8,5.05,0.00,22.0,20.6,00.0,30.9,23.8,03.7,0000.0,0001.19,0000.88,0000.78
2022-12-16 07:10:00,,0821.8,4.98,0.00,22.0,20.5,00.0,30.9,23.8,03.7,0000.0,0001.20,0000.87,0000.78
2022-12-16 07:11:00,,0821.8,4.98,0.00,22.0,20.4,00.0,30.9,23.7,03.7,0000.0,0001.17,0000.86,0000.78
2022-12-16 07:12:00,,0821.8,5.03,0.00,22.0,20.4,00.0,30.9,23.7,03.7,0000.0,0001.17,0000.86,0000.78
2022-12-16 07:13:00,,0821.9,4.98,0.00,22.0,20.7,00.0,30.8,23.8,03.7,0000.0,0001.20,0000.87,0000.79
2022-12-16 07:14:00,,0822.0,5.05,0.00,22.1,21.6,00.0,30.8,24.0,03.7,0000.0,0001.18,0000.87,0000.79
2022-12-16 07:15:00,,0822.0,4.96,0.00,22.2,22.2,00.0,30.8,24.2,03.6,0000.0,0001.14,0000.86,0000.78
2022-12-16 07:16:00,,0821.9,5.04,0.00,22.2,21.9,00.0,30.9,24.1,03.6,0000.0,0001.12,0000.85,0000.78
2022-12-16 07:17:00,,0821.8,4.96,0.00,22.2,21.5,00.0,30.9,24.1,03.6,0000.0,0001.22,0000.86,0000.78
2022-12-16 07:18:00,,0821.9,5.06,0.00,22.2,21.2,00.0,30.9,24.0,03.6,0000.0,0001.23,0000.86,0000.77
2022-12-16 07:19:00,,0822.1,4.97,0.00,22.1,21.0,00.0,30.9,23.9,03.6,0000.0,0001.19,0000.85,0000.77
2022-12-16 07:20:00,,0821.9,4.98,0.00,22.1,20.9,00.0,30.9,23.9,03.6,0000.0,0001.20,0000.85,0000.77
2022-12-16 07:21:00,,0821.9,5.04,0.00,22.1,20.7,00.0,30.9,23.9,03.6,0000.0,0001.54,0000.87,0000.77
2022-12-16 07:22:00,,0821.8,4.98,0.00,22.1,20.6,00.0,30.9,23.8,03.6,0000.0,0001.66,0000.92,0000.79
2022-12-16 07:23:00,,0821.9,4.97,0.00,22.1,20.5,00.0,30.9,23.8,03.6,0000.0,0001.81,0000.94,0000.80
2022-12-16 07:24:00,,0821.9,5.04,0.00,22.0,20.4,00.0,30.9,23.8,03.6,0000.0,0002.04,0000.95,0000.80
2022-12-16 07:25:00,,0821.9,4.98,0.00,22.0,21.0,00.0,30.9,23.9,03.6,0000.0,0002.02,0000.96,0000.81
2022-12-16 07:26:00,,0822.0,5.00,0.00,22.1,21.9,00.0,30.8,24.1,03.6,0000.0,0002.03,0000.97,0000.82
2022-12-16 07:27:00,,0822.0,5.00,0.00,22.2,22.2,00.0,30.9,24.2,03.6,0000.0,0002.05,0000.98,0000.82
2022-12-16 07:28:00,,0821.9,4.99,0.00,22.3,21.8,00.0,30.9,24.1,03.6,0000.0,0002.01,0000.97,0000.82
2022-12-16 07:29:00,,0822.1,5.05,0.00,22.2,21.4,00.0,31.0,24.1,03.6,0000.0,0001.98,0000.97,0000.81
2022-12-16 07:30:00,,0822.0,4.98,0.00,22.2,21.1,00.0,31.0,24.0,03.6,0000.0,0002.31,0000.99,0000.81
2022-12-16 07:31:00,,0821.9,4.98,0.00,22.2,20.9,00.0,31.0,24.0,03.6,0000.0,0002.48,0000.99,0000.81
2022-12-16 07:32:00,,0822.0,5.05,0.00,22.2,20.8,00.0,31.0,23.9,03.6,0000.0,0003.16,0000.99,0000.82
2022-12-16 07:33:00,,0822.0,4.97,0.00,22.2,20.7,00.0,31.0,23.9,03.6,0000.0,0003.09,0000.97,0000.82
2022-12-16 07:34:00,,0822.2,4.97,0.00,22.1,20.6,00.0,31.0,23.9,03.7,0000.0,0003.03,0000.94,0000.82
2022-12-16 07:35:00,,0822.1,5.03,0.00,22.1,20.5,00.0,31.0,23.8,03.7,0000.0,0002.71,0000.94,0000.81
2022-12-16 07:36:00,,0822.1,4.97,0.00,22.1,20.5,00.0,31.0,23.8,03.7,0000.0,0002.69,0000.92,0000.81
2022-12-16 07:37:00,,0822.2,5.05,0.00,22.1,20.8,00.0,30.9,23.8,03.8,0000.0,0002.71,0000.94,0000.82
2022-12-16 07:38:00,,0821.9,4.96,0.00,22.2,21.7,00.0,30.9,24.1,03.8,0000.0,0002.71,0000.94,0000.84
2022-12-16 07:39:00,,0822.1,5.00,0.00,22.2,22.2,00.0,30.9,24.2,03.8,0000.0,0003.03,0000.98,0000.86
2022-12-16 07:40:00,,0822.0,5.03,0.00,22.3,21.8,00.0,31.0,24.1,03.8,0000.0,0004.01,0001.02,0000.88
2022-12-16 07:41:00,,0822.0,5.00,0.00,22.2,21.4,00.0,31.0,24.1,03.8,0000.0,0004.16,0001.03,0000.90
2022-12-16 07:42:00,,0822.0,5.01,0.00,22.2,21.1,00.0,31.0,23.9,03.8,0000.0,0004.49,0001.03,0000.91
2022-12-16 07:43:00,,0821.9,4.98,0.00,22.2,20.9,00.0,31.0,23.9,03.7,0000.0,0003.92,0001.01,0000.91
2022-12-16 07:44:00,,0821.9,5.03,0.00,22.1,20.6,00.0,31.0,23.8,03.6,0000.0,0003.45,0001.00,0000.90
2022-12-16 07:45:00,,0822.2,4.99,0.00,22.1,20.5,00.0,31.0,23.8,03.6,0000.0,0003.48,0001.01,0000.90
2022-12-16 07:46:00,,0822.2,5.01,0.00,22.0,20.3,00.0,31.0,23.7,03.6,0000.0,0003.50,0001.01,0000.90
2022-12-16 07:47:00,,0821.9,5.00,0.00,22.0,20.2,00.0,30.9,23.6,03.7,0000.0,0003.50,0001.01,0000.89
2022-12-16 07:48:00,,0822.0,4.98,0.00,22.0,20.8,00.0,30.9,23.7,03.7,0000.0,0003.55,0001.02,0000.88
2022-12-16 07:49:00,,0821.9,5.05,0.00,22.1,21.8,00.0,30.9,24.0,03.6,0000.0,0003.62,0001.04,0000.87
2022-12-16 07:50:00,,0821.9,4.95,0.00,22.2,21.9,00.0,30.9,24.1,03.6,0000.0,0003.57,0001.02,0000.86
2022-12-16 07:51:00,,0822.3,5.05,0.00,22.1,21.4,00.0,30.9,23.9,03.6,0000.0,0002.67,0001.00,0000.84
2022-12-16 07:52:00,,0821.9,4.98,0.00,22.1,20.9,00.0,30.9,23.8,03.7,0000.0,0002.04,0000.98,0000.83
2022-12-16 07:53:00,,0821.9,4.97,0.00,22.0,20.6,00.0,30.9,23.7,03.7,0000.0,0001.58,0000.98,0000.83
2022-12-16 07:54:00,,0821.9,5.04,0.00,22.0,20.5,00.0,30.9,23.7,03.8,0000.0,0001.40,0000.99,0000.84
2022-12-16 07:55:00,,0822.1,4.97,0.00,22.0,20.4,00.0,30.9,23.7,03.8,0000.0,0001.42,0001.00,0000.85
2022-12-16 07:56:00,,0821.8,4.99,0.00,22.0,20.3,00.0,30.9,23.6,03.8,0000.0,0001.39,0001.00,0000.86
2022-12-16 07:57:00,,0821.8,5.02,0.00,21.9,20.3,00.0,30.9,23.6,03.8,0000.0,0001.35,0001.00,0000.86
2022-12-16 07:58:00,,0821.9,4.98,0.00,21.9,20.3,00.0,30.9,23.6,03.8,0000.0,0001.36,0001.01,0000.87
2022-12-16 07:59:00,,0821.8,5.03,0.00,21.9,20.7,00.0,30.8,23.6,03.8,0000.0,0001.43,0001.04,0000.89
